Weather in Chicago

United States     41°52′32″N   87°37′25″W
temp.,
°C
wind,
m/s
gust,
m/s
humid.,
%
clouds,
%
prec.,
mm/h
press.,
hPa
HPBL,
m
7 may, fri
fri701:00+8ssw35655 0.0 1017133
04:00+8wsw577797 0.0 1016184
07:00+8wnw61178100 0.0 1015529
10:00+9nw710757 0.1 1016608
13:00+8nne797194 0.1 1016377
16:00+8nne797474 0.0 1017430
19:00+8ne67735 0.0 1017419
22:00+7nne45745 0.0 1018467
8 may, sat
sat801:00+7nne45715 0.0 1019594
04:00+7nnw33702 0.0 1020522
07:00+7n33700 0.0 1022561
10:00+7ene226675 0.0 1021564
13:00+6e446796 0.0 1020362
16:00+7e6666100 0.0 1018264
19:00+6ese4471100 0.7 1018292
22:00+6e4489100 3.7 1018314
9 may, sun
sun901:00+6e111090100 10.1 1014572
04:00+7e121390100 5.5 1011751
07:00+6ene131491100 16.6 1010861
10:00+6ene131492100 7.9 1009727
13:00+6ene131491100 9.8 1010873
16:00+7ne111385100 0.6 10111061
19:00+8n912758 0.6 1014585
22:00+8nne91275100 0.0 1016485
10 may, mon
mon1001:00+7nne10117491 0.0 1017485
04:00+7nne910665 0.0 1020598
07:00+6n8963100 0.0 1021712
10:00+6n89655 0.0 1023805
13:00+6n78662 0.0 1024662
16:00+7ne67635 0.0 1024491
19:00+7ne34675 0.0 1025452
22:00+7nne236554 0.0 1026282
11 may, tue
tue1101:00+7n22665 0.0 1027235
04:00+7wnw23680 0.0 1027207
07:00+6wnw45710 0.0 1029212
10:00+8nnw34660 0.0 1030170
13:00+9e44693 0.0 102978
16:00+9e55735 0.0 1028128
19:00+9e33713 0.0 102867
22:00+10se336610 0.0 102922